Regional Weather Roundup
Issued by NWS

Home | Current Version | Previous Version | Graphics & Text | Print | Product List | Glossary On
Versions: 1 2 3 4 5 6 7 8 9 10 11 12 13 14 15 16 17 18 19 20 21 22 23 24 25 26 27 28 29 30 31 32 33 34 35 36 37 38 39 40 41 42 43 44 45 46 47 48 49 50
000
ASUS43 KFSD 281010
RWRSD

WEATHER ROUNDUP FOR SOUTH DAKOTA
NATIONAL WEATHER SERVICE SIOUX FALLS SD
500 AM CDT WED JUN 28 2017

NOTE: "FAIR" INDICATES FEW OR NO CLOUDS BELOW 12,000 FEET WITH NO
SIGNIFICANT WEATHER AND/OR OBSTRUCTIONS TO VISIBILITY.


SDZ001>005-009-010-012>017-281100-
NORTHWEST AND NORTH CENTRAL SOUTH DAKOTA

CITY           SKY/WX    TMP DP  RH WIND       PRES   REMARKS
BUFFALO          N/A     60  53  77 NW13      29.69R
FAITH            N/A     66  55  67 NW14      29.68R
MOBRIDGE       CLOUDY    69  55  60 NW17G23   29.54R
$$

SDZ012>016-024>037-041>051-057-063-072>074-281100-
SOUTHWEST AND SOUTH CENTRAL SOUTH DAKOTA

CITY           SKY/WX    TMP DP  RH WIND       PRES   REMARKS
RAPID CTY ARPT CLEAR     61  51  70 NW15      29.75S
PIERRE         LGT RAIN  68  57  68 NW15      29.58R
CUSTER         CLEAR     54  43  66 W6        29.87R
PHILIP         PTCLDY    65  57  75 W12       29.67R
PINE RIDGE     CLEAR     53  51  93 SW5       29.78S
SPEARFISH      FAIR      57  50  77 W7        29.82S
WINNER         FAIR      70  53  54 SW10      29.64R
$$

SDZ004>011-016>023-039-040-281100-
NORTHEAST SOUTH DAKOTA

CITY           SKY/WX    TMP DP  RH WIND       PRES   REMARKS
ABERDEEN       CLOUDY    65  60  84 W13       29.44F
WATERTOWN      CLOUDY    66  61  84 S13       29.49R
BROOKINGS      CLOUDY    64  61  90 S12       29.55R
SISSETON         N/A     67  65  93 E10       29.46R
$$

SDZ017-020-022-023-036>040-048>070-281100-
SOUTHEAST SOUTH DAKOTA

CITY           SKY/WX    TMP DP  RH WIND       PRES   REMARKS
SIOUX FALLS    CLOUDY    65  63  93 CALM      29.59R
HURON          CLOUDY    71  54  54 SW12      29.49F
CHAMBERLAIN    PTCLDY    71  56  58 W8        29.60R
MITCHELL       CLOUDY    70  59  68 SW14      29.55R
YANKTON        MOCLDY    68  65  90 SW7       29.62R
$$

ABBREVIATIONS USED IN REMARKS
   TC - TEMPERATURE IN CELSIUS
  WCI - WIND CHILL INDEX
   HX - HEAT INDEX
  VSB - VISIBILITY





USA.gov is the U.S. government's official web portal to all federal, state and local government web resources and services.